owner,sensor,date,latitude,longitude,vertical_datum,sea_water_temperature,qcFlag 
COMPS,ioos:station:USF.COMPS:C10:1,2014-11-03T03:05:00Z,27.1690,-82.9260,-1.0,25.205,2 
COMPS,ioos:station:USF.COMPS:C10:1,2014-11-03T03:35:00Z,27.1690,-82.9260,-1.0,25.128,2 
COMPS,ioos:station:USF.COMPS:C10:1,2014-11-03T04:05:00Z,27.1690,-82.9260,-1.0,25.11,2 
COMPS,ioos:station:USF.COMPS:C10:1,2014-11-03T04:35:00Z,27.1690,-82.9260,-1.0,25.077,2 
COMPS,ioos:station:USF.COMPS:C10:1,2014-11-03T05:05:00Z,27.1690,-82.9260,-1.0,25.034,2 
COMPS,ioos:station:USF.COMPS:C10:1,2014-11-03T05:35:00Z,27.1690,-82.9260,-1.0,24.977,2 
COMPS,ioos:station:USF.COMPS:C10:1,2014-11-03T06:05:00Z,27.1690,-82.9260,-1.0,24.962,2 
COMPS,ioos:station:USF.COMPS:C10:1,2014-11-03T06:35:00Z,27.1690,-82.9260,-1.0,24.931,2 
COMPS,ioos:station:USF.COMPS:C10:1,2014-11-03T07:05:00Z,27.1690,-82.9260,-1.0,24.876,2 
COMPS,ioos:station:USF.COMPS:C10:1,2014-11-03T07:35:00Z,27.1690,-82.9260,-1.0,24.876,2 
COMPS,ioos:station:USF.COMPS:C10:1,2014-11-03T08:05:00Z,27.1690,-82.9260,-1.0,24.822,2 
COMPS,ioos:station:USF.COMPS:C10:1,2014-11-03T08:35:00Z,27.1690,-82.9260,-1.0,24.803,2 
COMPS,ioos:station:USF.COMPS:C10:1,2014-11-03T09:05:00Z,27.1690,-82.9260,-1.0,24.807,2 
COMPS,ioos:station:USF.COMPS:C10:1,2014-11-03T09:35:00Z,27.1690,-82.9260,-1.0,24.804,2 
COMPS,ioos:station:USF.COMPS:C10:1,2014-11-03T10:05:00Z,27.1690,-82.9260,-1.0,24.788,2 
COMPS,ioos:station:USF.COMPS:C10:1,2014-11-03T10:35:00Z,27.1690,-82.9260,-1.0,24.792,2 
COMPS,ioos:station:USF.COMPS:C10:1,2014-11-03T11:05:00Z,27.1690,-82.9260,-1.0,24.77,2 
COMPS,ioos:station:USF.COMPS:C10:1,2014-11-03T11:35:00Z,27.1690,-82.9260,-1.0,24.779,2 
COMPS,ioos:station:USF.COMPS:C10:1,2014-11-03T12:05:00Z,27.1690,-82.9260,-1.0,24.806,2 
COMPS,ioos:station:USF.COMPS:C10:1,2014-11-03T12:35:00Z,27.1690,-82.9260,-1.0,24.773,2 
COMPS,ioos:station:USF.COMPS:C10:1,2014-11-03T13:05:00Z,27.1690,-82.9260,-1.0,24.797,2 
COMPS,ioos:station:USF.COMPS:C10:1,2014-11-03T13:35:00Z,27.1690,-82.9260,-1.0,24.809,2 
COMPS,ioos:station:USF.COMPS:C10:1,2014-11-03T14:05:00Z,27.1690,-82.9260,-1.0,24.8,2 
COMPS,ioos:station:USF.COMPS:C10:1,2014-11-03T14:35:00Z,27.1690,-82.9260,-1.0,24.81,2 
COMPS,ioos:station:USF.COMPS:C10:1,2014-11-03T15:05:00Z,27.1690,-82.9260,-1.0,24.794,2 
COMPS,ioos:station:USF.COMPS:C10:1,2014-11-03T15:35:00Z,27.1690,-82.9260,-1.0,24.799,2 
COMPS,ioos:station:USF.COMPS:C10:1,2014-11-03T16:05:00Z,27.1690,-82.9260,-1.0,24.785,2 
COMPS,ioos:station:USF.COMPS:C10:1,2014-11-03T16:35:00Z,27.1690,-82.9260,-1.0,24.777,2 
COMPS,ioos:station:USF.COMPS:C10:1,2014-11-03T17:05:00Z,27.1690,-82.9260,-1.0,24.752,2 
COMPS,ioos:station:USF.COMPS:C10:1,2014-11-03T17:35:00Z,27.1690,-82.9260,-1.0,24.725,2 
COMPS,ioos:station:USF.COMPS:C10:1,2014-11-03T18:05:00Z,27.1690,-82.9260,-1.0,24.712,2 
COMPS,ioos:station:USF.COMPS:C10:1,2014-11-03T18:35:00Z,27.1690,-82.9260,-1.0,24.688,2 
COMPS,ioos:station:USF.COMPS:C10:1,2014-11-03T19:05:00Z,27.1690,-82.9260,-1.0,24.685,2 
COMPS,ioos:station:USF.COMPS:C10:1,2014-11-03T19:35:00Z,27.1690,-82.9260,-1.0,24.692,2 
COMPS,ioos:station:USF.COMPS:C10:1,2014-11-03T20:05:00Z,27.1690,-82.9260,-1.0,24.685,2 
COMPS,ioos:station:USF.COMPS:C10:1,2014-11-03T20:35:00Z,27.1690,-82.9260,-1.0,24.685,2 
COMPS,ioos:station:USF.COMPS:C10:1,2014-11-03T21:05:00Z,27.1690,-82.9260,-1.0,24.683,2 
COMPS,ioos:station:USF.COMPS:C10:1,2014-11-03T21:35:00Z,27.1690,-82.9260,-1.0,24.67,2 
COMPS,ioos:station:USF.COMPS:C10:1,2014-11-03T22:05:00Z,27.1690,-82.9260,-1.0,24.663,2 
COMPS,ioos:station:USF.COMPS:C10:1,2014-11-03T22:35:00Z,27.1690,-82.9260,-1.0,24.657,2 
COMPS,ioos:station:USF.COMPS:C10:1,2014-11-03T23:05:00Z,27.1690,-82.9260,-1.0,24.648,2 
COMPS,ioos:station:USF.COMPS:C10:1,2014-11-03T23:35:00Z,27.1690,-82.9260,-1.0,24.666,2 
COMPS,ioos:station:USF.COMPS:C10:1,2014-11-04T00:05:00Z,27.1690,-82.9260,-1.0,24.676,2 
COMPS,ioos:station:USF.COMPS:C10:1,2014-11-04T00:35:00Z,27.1690,-82.9260,-1.0,24.695,2 
COMPS,ioos:station:USF.COMPS:C10:1,2014-11-04T01:05:00Z,27.1690,-82.9260,-1.0,24.653,2 
COMPS,ioos:station:USF.COMPS:C10:1,2014-11-04T01:35:00Z,27.1690,-82.9260,-1.0,24.674,2 
COMPS,ioos:station:USF.COMPS:C10:1,2014-11-04T02:05:00Z,27.1690,-82.9260,-1.0,24.678,2 
COMPS,ioos:station:USF.COMPS:C10:1,2014-11-04T02:35:00Z,27.1690,-82.9260,-1.0,24.706,2 
COMPS,ioos:station:USF.COMPS:C10:1,2014-11-05T00:05:00Z,27.1690,-82.9260,-1.0,24.441,2 
COMPS,ioos:station:USF.COMPS:C10:1,2014-11-05T00:35:00Z,27.1690,-82.9260,-1.0,24.451,2 
COMPS,ioos:station:USF.COMPS:C10:1,2014-11-05T01:05:00Z,27.1690,-82.9260,-1.0,24.481,2 
COMPS,ioos:station:USF.COMPS:C10:1,2014-11-05T01:35:00Z,27.1690,-82.9260,-1.0,24.476,2 
COMPS,ioos:station:USF.COMPS:C10:1,2014-11-05T02:05:00Z,27.1690,-82.9260,-1.0,24.473,2 
COMPS,ioos:station:USF.COMPS:C10:1,2014-11-05T02:35:00Z,27.1690,-82.9260,-1.0,24.468,2 
COMPS,ioos:station:USF.COMPS:C10:1,2014-11-05T03:05:00Z,27.1690,-82.9260,-1.0,24.464,2 
COMPS,ioos:station:USF.COMPS:C10:1,2014-11-05T03:35:00Z,27.1690,-82.9260,-1.0,24.488,2 
COMPS,ioos:station:USF.COMPS:C10:1,2014-11-05T04:05:00Z,27.1690,-82.9260,-1.0,24.46,2 
COMPS,ioos:station:USF.COMPS:C10:1,2014-11-05T04:35:00Z,27.1690,-82.9260,-1.0,24.469,2 
COMPS,ioos:station:USF.COMPS:C10:1,2014-11-05T05:05:00Z,27.1690,-82.9260,-1.0,24.454,2 
COMPS,ioos:station:USF.COMPS:C10:1,2014-11-05T05:35:00Z,27.1690,-82.9260,-1.0,24.428,2 
COMPS,ioos:station:USF.COMPS:C10:1,2014-11-05T06:05:00Z,27.1690,-82.9260,-1.0,24.391,2 
COMPS,ioos:station:USF.COMPS:C10:1,2014-11-05T06:35:00Z,27.1690,-82.9260,-1.0,24.389,2 
COMPS,ioos:station:USF.COMPS:C10:1,2014-11-05T07:05:00Z,27.1690,-82.9260,-1.0,24.378,2 
COMPS,ioos:station:USF.COMPS:C10:1,2014-11-05T07:35:00Z,27.1690,-82.9260,-1.0,24.351,2 
COMPS,ioos:station:USF.COMPS:C10:1,2014-11-05T08:05:00Z,27.1690,-82.9260,-1.0,24.339,2 
COMPS,ioos:station:USF.COMPS:C10:1,2014-11-05T08:35:00Z,27.1690,-82.9260,-1.0,24.332,2 
COMPS,ioos:station:USF.COMPS:C10:1,2014-11-05T09:05:00Z,27.1690,-82.9260,-1.0,24.334,2 
COMPS,ioos:station:USF.COMPS:C10:1,2014-11-05T09:35:00Z,27.1690,-82.9260,-1.0,24.335,2 
COMPS,ioos:station:USF.COMPS:C10:1,2014-11-05T10:05:00Z,27.1690,-82.9260,-1.0,24.33,2 
COMPS,ioos:station:USF.COMPS:C10:1,2014-11-05T10:35:00Z,27.1690,-82.9260,-1.0,24.335,2 
COMPS,ioos:station:USF.COMPS:C10:1,2014-11-05T11:05:00Z,27.1690,-82.9260,-1.0,24.336,2 
COMPS,ioos:station:USF.COMPS:C10:1,2014-11-05T11:35:00Z,27.1690,-82.9260,-1.0,24.328,2 
COMPS,ioos:station:USF.COMPS:C10:1,2014-11-05T12:05:00Z,27.1690,-82.9260,-1.0,24.353,2 
COMPS,ioos:station:USF.COMPS:C10:1,2014-11-05T12:35:00Z,27.1690,-82.9260,-1.0,24.36,2 
COMPS,ioos:station:USF.COMPS:C10:1,2014-11-05T13:05:00Z,27.1690,-82.9260,-1.0,24.375,2 
COMPS,ioos:station:USF.COMPS:C10:1,2014-11-05T13:35:00Z,27.1690,-82.9260,-1.0,24.368,2 
COMPS,ioos:station:USF.COMPS:C10:1,2014-11-05T14:05:00Z,27.1690,-82.9260,-1.0,24.372,2 
COMPS,ioos:station:USF.COMPS:C10:1,2014-11-05T14:35:00Z,27.1690,-82.9260,-1.0,24.389,2 
COMPS,ioos:station:USF.COMPS:C10:1,2014-11-05T15:05:00Z,27.1690,-82.9260,-1.0,24.404,2 
COMPS,ioos:station:USF.COMPS:C10:1,2014-11-05T15:35:00Z,27.1690,-82.9260,-1.0,24.405,2 
COMPS,ioos:station:USF.COMPS:C10:1,2014-11-05T16:05:00Z,27.1690,-82.9260,-1.0,24.435,2 
COMPS,ioos:station:USF.COMPS:C10:1,2014-11-05T16:35:00Z,27.1690,-82.9260,-1.0,24.44,2 
COMPS,ioos:station:USF.COMPS:C10:1,2014-11-05T17:05:00Z,27.1690,-82.9260,-1.0,24.481,2 
COMPS,ioos:station:USF.COMPS:C10:1,2014-11-05T17:35:00Z,27.1690,-82.9260,-1.0,24.519,2 
COMPS,ioos:station:USF.COMPS:C10:1,2014-11-05T18:05:00Z,27.1690,-82.9260,-1.0,24.585,2 
COMPS,ioos:station:USF.COMPS:C10:1,2014-11-05T18:35:00Z,27.1690,-82.9260,-1.0,24.565,2 
COMPS,ioos:station:USF.COMPS:C10:1,2014-11-05T19:05:00Z,27.1690,-82.9260,-1.0,24.562,2 
COMPS,ioos:station:USF.COMPS:C10:1,2014-11-05T19:35:00Z,27.1690,-82.9260,-1.0,24.571,2 
COMPS,ioos:station:USF.COMPS:C10:1,2014-11-05T20:05:00Z,27.1690,-82.9260,-1.0,24.595,2 
COMPS,ioos:station:USF.COMPS:C10:1,2014-11-05T20:35:00Z,27.1690,-82.9260,-1.0,24.605,2 
COMPS,ioos:station:USF.COMPS:C10:1,2014-11-05T21:05:00Z,27.1690,-82.9260,-1.0,24.622,2 
COMPS,ioos:station:USF.COMPS:C10:1,2014-11-05T21:35:00Z,27.1690,-82.9260,-1.0,24.625,2 
COMPS,ioos:station:USF.COMPS:C10:1,2014-11-05T22:05:00Z,27.1690,-82.9260,-1.0,24.599,2 
COMPS,ioos:station:USF.COMPS:C10:1,2014-11-05T22:35:00Z,27.1690,-82.9260,-1.0,24.583,2 
COMPS,ioos:station:USF.COMPS:C10:1,2014-11-05T23:05:00Z,27.1690,-82.9260,-1.0,24.551,2 
COMPS,ioos:station:USF.COMPS:C10:1,2014-11-05T23:35:00Z,27.1690,-82.9260,-1.0,24.53,2 
COMPS,ioos:station:USF.COMPS:C10:1,2014-11-06T00:05:00Z,27.1690,-82.9260,-1.0,24.506,2 
COMPS,ioos:station:USF.COMPS:C10:1,2014-11-06T00:35:00Z,27.1690,-82.9260,-1.0,24.503,2 
COMPS,ioos:station:USF.COMPS:C10:1,2014-11-06T01:05:00Z,27.1690,-82.9260,-1.0,24.504,2 
COMPS,ioos:station:USF.COMPS:C10:1,2014-11-06T01:35:00Z,27.1690,-82.9260,-1.0,24.481,2 
COMPS,ioos:station:USF.COMPS:C10:1,2014-11-06T02:05:00Z,27.1690,-82.9260,-1.0,24.475,2 
COMPS,ioos:station:USF.COMPS:C10:1,2014-11-06T02:35:00Z,27.1690,-82.9260,-1.0,24.471,2 
COMPS,ioos:station:USF.COMPS:C10:1,2014-11-06T03:05:00Z,27.1690,-82.9260,-1.0,24.452,2 
COMPS,ioos:station:USF.COMPS:C10:1,2014-11-06T03:35:00Z,27.1690,-82.9260,-1.0,24.434,2 
COMPS,ioos:station:USF.COMPS:C10:1,2014-11-06T04:05:00Z,27.1690,-82.9260,-1.0,24.419,2 
COMPS,ioos:station:USF.COMPS:C10:1,2014-11-06T04:35:00Z,27.1690,-82.9260,-1.0,24.415,2 
COMPS,ioos:station:USF.COMPS:C10:1,2014-11-06T05:05:00Z,27.1690,-82.9260,-1.0,24.397,2 
COMPS,ioos:station:USF.COMPS:C10:1,2014-11-06T05:35:00Z,27.1690,-82.9260,-1.0,24.399,2 
COMPS,ioos:station:USF.COMPS:C10:1,2014-11-06T06:05:00Z,27.1690,-82.9260,-1.0,24.397,2 
COMPS,ioos:station:USF.COMPS:C10:1,2014-11-06T06:35:00Z,27.1690,-82.9260,-1.0,24.391,2 
COMPS,ioos:station:USF.COMPS:C10:1,2014-11-06T07:05:00Z,27.1690,-82.9260,-1.0,24.384,2 
COMPS,ioos:station:USF.COMPS:C10:1,2014-11-06T07:35:00Z,27.1690,-82.9260,-1.0,24.361,2 
COMPS,ioos:station:USF.COMPS:C10:1,2014-11-06T08:05:00Z,27.1690,-82.9260,-1.0,24.367,2 
COMPS,ioos:station:USF.COMPS:C10:1,2014-11-06T08:35:00Z,27.1690,-82.9260,-1.0,24.369,2 
COMPS,ioos:station:USF.COMPS:C10:1,2014-11-06T09:05:00Z,27.1690,-82.9260,-1.0,24.353,2 
COMPS,ioos:station:USF.COMPS:C10:1,2014-11-06T09:35:00Z,27.1690,-82.9260,-1.0,24.342,2 
COMPS,ioos:station:USF.COMPS:C10:1,2014-11-06T10:05:00Z,27.1690,-82.9260,-1.0,24.333,2 
COMPS,ioos:station:USF.COMPS:C10:1,2014-11-06T10:35:00Z,27.1690,-82.9260,-1.0,24.326,2 
COMPS,ioos:station:USF.COMPS:C10:1,2014-11-06T11:05:00Z,27.1690,-82.9260,-1.0,24.338,2 
COMPS,ioos:station:USF.COMPS:C10:1,2014-11-06T11:35:00Z,27.1690,-82.9260,-1.0,24.334,2 
COMPS,ioos:station:USF.COMPS:C10:1,2014-11-06T12:05:00Z,27.1690,-82.9260,-1.0,24.358,2 
COMPS,ioos:station:USF.COMPS:C10:1,2014-11-06T12:35:00Z,27.1690,-82.9260,-1.0,24.358,2 
COMPS,ioos:station:USF.COMPS:C10:1,2014-11-06T13:05:00Z,27.1690,-82.9260,-1.0,24.363,2 
COMPS,ioos:station:USF.COMPS:C10:1,2014-11-06T13:35:00Z,27.1690,-82.9260,-1.0,24.371,2 
COMPS,ioos:station:USF.COMPS:C10:1,2014-11-06T14:05:00Z,27.1690,-82.9260,-1.0,24.382,2 
COMPS,ioos:station:USF.COMPS:C10:1,2014-11-06T14:35:00Z,27.1690,-82.9260,-1.0,24.405,2 
COMPS,ioos:station:USF.COMPS:C10:1,2014-11-06T15:05:00Z,27.1690,-82.9260,-1.0,24.438,2 
COMPS,ioos:station:USF.COMPS:C10:1,2014-11-06T15:35:00Z,27.1690,-82.9260,-1.0,24.486,2 
COMPS,ioos:station:USF.COMPS:C10:1,2014-11-06T16:05:00Z,27.1690,-82.9260,-1.0,24.522,2 
COMPS,ioos:station:USF.COMPS:C10:1,2014-11-06T16:35:00Z,27.1690,-82.9260,-1.0,24.588,2 
COMPS,ioos:station:USF.COMPS:C10:1,2014-11-06T17:05:00Z,27.1690,-82.9260,-1.0,24.667,2 
COMPS,ioos:station:USF.COMPS:C10:1,2014-11-06T17:35:00Z,27.1690,-82.9260,-1.0,24.787,2 
COMPS,ioos:station:USF.COMPS:C10:1,2014-11-06T18:05:00Z,27.1690,-82.9260,-1.0,24.899,2 
COMPS,ioos:station:USF.COMPS:C10:1,2014-11-06T18:35:00Z,27.1690,-82.9260,-1.0,24.946,2 
COMPS,ioos:station:USF.COMPS:C10:1,2014-11-06T19:05:00Z,27.1690,-82.9260,-1.0,24.962,2 
COMPS,ioos:station:USF.COMPS:C10:1,2014-11-06T19:35:00Z,27.1690,-82.9260,-1.0,24.96,2 
COMPS,ioos:station:USF.COMPS:C10:1,2014-11-06T20:05:00Z,27.1690,-82.9260,-1.0,25.015,2 
COMPS,ioos:station:USF.COMPS:C10:1,2014-11-06T20:35:00Z,27.1690,-82.9260,-1.0,25.085,2 
COMPS,ioos:station:USF.COMPS:C10:1,2014-11-06T21:05:00Z,27.1690,-82.9260,-1.0,24.835,2 
COMPS,ioos:station:USF.COMPS:C10:1,2014-11-06T21:35:00Z,27.1690,-82.9260,-1.0,25.083,2 
COMPS,ioos:station:USF.COMPS:C10:1,2014-11-06T22:05:00Z,27.1690,-82.9260,-1.0,25.026,2 
COMPS,ioos:station:USF.COMPS:C10:1,2014-11-06T22:35:00Z,27.1690,-82.9260,-1.0,24.957,2 
COMPS,ioos:station:USF.COMPS:C10:1,2014-11-06T23:05:00Z,27.1690,-82.9260,-1.0,24.904,2 
COMPS,ioos:station:USF.COMPS:C10:1,2014-11-06T23:35:00Z,27.1690,-82.9260,-1.0,24.838,2 
COMPS,ioos:station:USF.COMPS:C10:1,2014-11-07T00:05:00Z,27.1690,-82.9260,-1.0,24.794,2 
COMPS,ioos:station:USF.COMPS:C10:1,2014-11-07T00:35:00Z,27.1690,-82.9260,-1.0,24.754,2 
COMPS,ioos:station:USF.COMPS:C10:1,2014-11-07T01:05:00Z,27.1690,-82.9260,-1.0,24.748,2 
COMPS,ioos:station:USF.COMPS:C10:1,2014-11-07T01:35:00Z,27.1690,-82.9260,-1.0,24.735,2 
COMPS,ioos:station:USF.COMPS:C10:1,2014-11-07T02:05:00Z,27.1690,-82.9260,-1.0,24.753,2 
COMPS,ioos:station:USF.COMPS:C10:1,2014-11-07T02:35:00Z,27.1690,-82.9260,-1.0,24.801,2 
COMPS,ioos:station:USF.COMPS:C10:1,2014-11-07T03:05:00Z,27.1690,-82.9260,-1.0,24.789,2 
COMPS,ioos:station:USF.COMPS:C10:1,2014-11-07T03:35:00Z,27.1690,-82.9260,-1.0,24.761,2 
COMPS,ioos:station:USF.COMPS:C10:1,2014-11-07T04:05:00Z,27.1690,-82.9260,-1.0,24.772,2 
COMPS,ioos:station:USF.COMPS:C10:1,2014-11-07T04:35:00Z,27.1690,-82.9260,-1.0,24.742,2 
COMPS,ioos:station:USF.COMPS:C10:1,2014-11-07T05:05:00Z,27.1690,-82.9260,-1.0,24.751,2 
COMPS,ioos:station:USF.COMPS:C10:1,2014-11-07T05:35:00Z,27.1690,-82.9260,-1.0,24.736,2 
COMPS,ioos:station:USF.COMPS:C10:1,2014-11-07T06:05:00Z,27.1690,-82.9260,-1.0,24.706,2 
COMPS,ioos:station:USF.COMPS:C10:1,2014-11-07T06:35:00Z,27.1690,-82.9260,-1.0,24.669,2 
COMPS,ioos:station:USF.COMPS:C10:1,2014-11-07T07:05:00Z,27.1690,-82.9260,-1.0,24.634,2 
COMPS,ioos:station:USF.COMPS:C10:1,2014-11-07T07:35:00Z,27.1690,-82.9260,-1.0,24.616,2 
COMPS,ioos:station:USF.COMPS:C10:1,2014-11-08T06:05:00Z,27.1690,-82.9260,-1.0,24.722,2 
COMPS,ioos:station:USF.COMPS:C10:1,2014-11-08T06:35:00Z,27.1690,-82.9260,-1.0,24.708,2 
COMPS,ioos:station:USF.COMPS:C10:1,2014-11-08T07:05:00Z,27.1690,-82.9260,-1.0,24.708,2 
COMPS,ioos:station:USF.COMPS:C10:1,2014-11-08T07:35:00Z,27.1690,-82.9260,-1.0,24.64,2 
COMPS,ioos:station:USF.COMPS:C10:1,2014-11-08T08:05:00Z,27.1690,-82.9260,-1.0,24.657,2 
COMPS,ioos:station:USF.COMPS:C10:1,2014-11-08T08:35:00Z,27.1690,-82.9260,-1.0,24.6,2 
COMPS,ioos:station:USF.COMPS:C10:1,2014-11-08T09:05:00Z,27.1690,-82.9260,-1.0,24.565,2 
COMPS,ioos:station:USF.COMPS:C10:1,2014-11-08T09:35:00Z,27.1690,-82.9260,-1.0,24.521,2 
COMPS,ioos:station:USF.COMPS:C10:1,2014-11-08T10:05:00Z,27.1690,-82.9260,-1.0,24.451,2 
COMPS,ioos:station:USF.COMPS:C10:1,2014-11-08T10:35:00Z,27.1690,-82.9260,-1.0,24.438,2 
COMPS,ioos:station:USF.COMPS:C10:1,2014-11-08T11:05:00Z,27.1690,-82.9260,-1.0,24.404,2 
COMPS,ioos:station:USF.COMPS:C10:1,2014-11-08T11:35:00Z,27.1690,-82.9260,-1.0,24.419,2 
COMPS,ioos:station:USF.COMPS:C10:1,2014-11-08T12:05:00Z,27.1690,-82.9260,-1.0,24.408,2 
COMPS,ioos:station:USF.COMPS:C10:1,2014-11-08T12:35:00Z,27.1690,-82.9260,-1.0,24.42,2 
COMPS,ioos:station:USF.COMPS:C10:1,2014-11-08T13:05:00Z,27.1690,-82.9260,-1.0,24.423,2 
COMPS,ioos:station:USF.COMPS:C10:1,2014-11-08T13:35:00Z,27.1690,-82.9260,-1.0,24.446,2 
COMPS,ioos:station:USF.COMPS:C10:1,2014-11-08T14:05:00Z,27.1690,-82.9260,-1.0,24.488,2 
COMPS,ioos:station:USF.COMPS:C10:1,2014-11-08T14:35:00Z,27.1690,-82.9260,-1.0,24.568,2 
COMPS,ioos:station:USF.COMPS:C10:1,2014-11-08T15:05:00Z,27.1690,-82.9260,-1.0,24.602,2 
COMPS,ioos:station:USF.COMPS:C10:1,2014-11-08T15:35:00Z,27.1690,-82.9260,-1.0,24.634,2 
COMPS,ioos:station:USF.COMPS:C10:1,2014-11-08T16:05:00Z,27.1690,-82.9260,-1.0,24.714,2 
COMPS,ioos:station:USF.COMPS:C10:1,2014-11-08T16:35:00Z,27.1690,-82.9260,-1.0,24.759,2 
COMPS,ioos:station:USF.COMPS:C10:1,2014-11-08T17:05:00Z,27.1690,-82.9260,-1.0,24.775,2 
COMPS,ioos:station:USF.COMPS:C10:1,2014-11-08T17:35:00Z,27.1690,-82.9260,-1.0,24.793,2 
COMPS,ioos:station:USF.COMPS:C10:1,2014-11-08T18:05:00Z,27.1690,-82.9260,-1.0,24.943,2 
COMPS,ioos:station:USF.COMPS:C10:1,2014-11-08T18:35:00Z,27.1690,-82.9260,-1.0,25.084,2 
COMPS,ioos:station:USF.COMPS:C10:1,2014-11-08T19:05:00Z,27.1690,-82.9260,-1.0,25.128,2 
COMPS,ioos:station:USF.COMPS:C10:1,2014-11-08T19:35:00Z,27.1690,-82.9260,-1.0,25.035,2 
COMPS,ioos:station:USF.COMPS:C10:1,2014-11-08T20:05:00Z,27.1690,-82.9260,-1.0,25.059,2 
COMPS,ioos:station:USF.COMPS:C10:1,2014-11-08T20:35:00Z,27.1690,-82.9260,-1.0,25.039,2 
COMPS,ioos:station:USF.COMPS:C10:1,2014-11-08T21:05:00Z,27.1690,-82.9260,-1.0,25.013,2 
COMPS,ioos:station:USF.COMPS:C10:1,2014-11-08T21:35:00Z,27.1690,-82.9260,-1.0,24.986,2 
COMPS,ioos:station:USF.COMPS:C10:1,2014-11-08T22:05:00Z,27.1690,-82.9260,-1.0,24.997,2 
COMPS,ioos:station:USF.COMPS:C10:1,2014-11-08T22:35:00Z,27.1690,-82.9260,-1.0,24.98,2 
COMPS,ioos:station:USF.COMPS:C10:1,2014-11-08T23:05:00Z,27.1690,-82.9260,-1.0,24.966,2 
COMPS,ioos:station:USF.COMPS:C10:1,2014-11-08T23:35:00Z,27.1690,-82.9260,-1.0,24.955,2 
COMPS,ioos:station:USF.COMPS:C10:1,2014-11-09T00:05:00Z,27.1690,-82.9260,-1.0,24.929,2 
COMPS,ioos:station:USF.COMPS:C10:1,2014-11-09T00:35:00Z,27.1690,-82.9260,-1.0,24.893,2 
COMPS,ioos:station:USF.COMPS:C10:1,2014-11-09T01:05:00Z,27.1690,-82.9260,-1.0,24.861,2 
COMPS,ioos:station:USF.COMPS:C10:1,2014-11-09T01:35:00Z,27.1690,-82.9260,-1.0,24.873,2 
COMPS,ioos:station:USF.COMPS:C10:1,2014-11-09T02:05:00Z,27.1690,-82.9260,-1.0,24.859,2 
COMPS,ioos:station:USF.COMPS:C10:1,2014-11-09T02:35:00Z,27.1690,-82.9260,-1.0,24.843,2 
COMPS,ioos:station:USF.COMPS:C10:1,2014-11-09T03:05:00Z,27.1690,-82.9260,-1.0,24.85,2 
COMPS,ioos:station:USF.COMPS:C10:1,2014-11-09T03:35:00Z,27.1690,-82.9260,-1.0,24.824,2 
COMPS,ioos:station:USF.COMPS:C10:1,2014-11-09T20:05:00Z,27.1690,-82.9260,-1.0,24.141,2 
COMPS,ioos:station:USF.COMPS:C10:1,2014-11-09T20:35:00Z,27.1690,-82.9260,-1.0,24.119,2 
COMPS,ioos:station:USF.COMPS:C10:1,2014-11-09T22:05:00Z,27.1690,-82.9260,-1.0,24.006,2 
COMPS,ioos:station:USF.COMPS:C10:1,2014-11-09T22:35:00Z,27.1690,-82.9260,-1.0,23.982,2 
COMPS,ioos:station:USF.COMPS:C10:1,2014-11-09T23:05:00Z,27.1690,-82.9260,-1.0,23.933,2 
COMPS,ioos:station:USF.COMPS:C10:1,2014-11-09T23:35:00Z,27.1690,-82.9260,-1.0,23.907,2 
COMPS,ioos:station:USF.COMPS:C10:1,2014-11-10T01:05:00Z,27.1690,-82.9260,-1.0,23.869,2 
COMPS,ioos:station:USF.COMPS:C10:1,2014-11-10T01:35:00Z,27.1690,-82.9260,-1.0,23.854,2 
COMPS,ioos:station:USF.COMPS:C10:1,2014-11-10T02:05:00Z,27.1690,-82.9260,-1.0,23.86,2 
COMPS,ioos:station:USF.COMPS:C10:1,2014-11-10T02:35:00Z,27.1690,-82.9260,-1.0,23.867,2 
COMPS,ioos:station:USF.COMPS:C10:1,2014-11-10T03:05:00Z,27.1690,-82.9260,-1.0,23.846,2 
COMPS,ioos:station:USF.COMPS:C10:1,2014-11-10T03:35:00Z,27.1690,-82.9260,-1.0,23.823,2 
COMPS,ioos:station:USF.COMPS:C10:1,2014-11-10T05:05:00Z,27.1690,-82.9260,-1.0,23.755,2 
COMPS,ioos:station:USF.COMPS:C10:1,2014-11-10T05:35:00Z,27.1690,-82.9260,-1.0,23.735,2 
COMPS,ioos:station:USF.COMPS:C10:1,2014-11-10T06:05:00Z,27.1690,-82.9260,-1.0,23.687,2 
COMPS,ioos:station:USF.COMPS:C10:1,2014-11-10T06:35:00Z,27.1690,-82.9260,-1.0,23.679,2 
COMPS,ioos:station:USF.COMPS:C10:1,2014-11-10T07:05:00Z,27.1690,-82.9260,-1.0,23.662,2 
COMPS,ioos:station:USF.COMPS:C10:1,2014-11-10T07:35:00Z,27.1690,-82.9260,-1.0,23.661,2 
COMPS,ioos:station:USF.COMPS:C10:1,2014-11-10T08:05:00Z,27.1690,-82.9260,-1.0,23.654,2 
COMPS,ioos:station:USF.COMPS:C10:1,2014-11-10T08:35:00Z,27.1690,-82.9260,-1.0,23.66,2 
COMPS,ioos:station:USF.COMPS:C10:1,2014-11-10T09:05:00Z,27.1690,-82.9260,-1.0,23.628,2 
COMPS,ioos:station:USF.COMPS:C10:1,2014-11-10T09:35:00Z,27.1690,-82.9260,-1.0,23.619,2 
COMPS,ioos:station:USF.COMPS:C10:1,2014-11-10T10:05:00Z,27.1690,-82.9260,-1.0,23.601,2 
COMPS,ioos:station:USF.COMPS:C10:1,2014-11-10T10:35:00Z,27.1690,-82.9260,-1.0,23.583,2 
COMPS,ioos:station:USF.COMPS:C10:1,2014-11-10T11:05:00Z,27.1690,-82.9260,-1.0,23.582,2 
COMPS,ioos:station:USF.COMPS:C10:1,2014-11-10T11:35:00Z,27.1690,-82.9260,-1.0,23.595,2 
COMPS,ioos:station:USF.COMPS:C10:1,2014-11-10T12:05:00Z,27.1690,-82.9260,-1.0,23.591,2 
COMPS,ioos:station:USF.COMPS:C10:1,2014-11-10T12:35:00Z,27.1690,-82.9260,-1.0,23.564,2 
COMPS,ioos:station:USF.COMPS:C10:1,2014-11-10T13:05:00Z,27.1690,-82.9260,-1.0,23.576,2 
COMPS,ioos:station:USF.COMPS:C10:1,2014-11-10T13:35:00Z,27.1690,-82.9260,-1.0,23.572,2 
COMPS,ioos:station:USF.COMPS:C10:1,2014-11-10T14:05:00Z,27.1690,-82.9260,-1.0,23.576,2 
COMPS,ioos:station:USF.COMPS:C10:1,2014-11-10T14:35:00Z,27.1690,-82.9260,-1.0,23.591,2 
COMPS,ioos:station:USF.COMPS:C10:1,2014-11-10T15:05:00Z,27.1690,-82.9260,-1.0,23.603,2 
COMPS,ioos:station:USF.COMPS:C10:1,2014-11-10T15:35:00Z,27.1690,-82.9260,-1.0,23.622,2 
COMPS,ioos:station:USF.COMPS:C10:1,2014-11-10T17:05:00Z,27.1690,-82.9260,-1.0,23.691,2 
COMPS,ioos:station:USF.COMPS:C10:1,2014-11-10T17:35:00Z,27.1690,-82.9260,-1.0,23.725,2 
COMPS,ioos:station:USF.COMPS:C10:1,2014-11-10T18:05:00Z,27.1690,-82.9260,-1.0,23.749,2 
COMPS,ioos:station:USF.COMPS:C10:1,2014-11-10T18:35:00Z,27.1690,-82.9260,-1.0,23.784,2 
COMPS,ioos:station:USF.COMPS:C10:1,2014-11-10T19:05:00Z,27.1690,-82.9260,-1.0,23.813,2 
COMPS,ioos:station:USF.COMPS:C10:1,2014-11-10T19:35:00Z,27.1690,-82.9260,-1.0,23.819,2 
COMPS,ioos:station:USF.COMPS:C10:1,2014-11-10T20:05:00Z,27.1690,-82.9260,-1.0,23.833,2 
COMPS,ioos:station:USF.COMPS:C10:1,2014-11-10T20:35:00Z,27.1690,-82.9260,-1.0,23.869,2 
COMPS,ioos:station:USF.COMPS:C10:1,2014-11-10T21:05:00Z,27.1690,-82.9260,-1.0,23.856,2 
COMPS,ioos:station:USF.COMPS:C10:1,2014-11-10T21:35:00Z,27.1690,-82.9260,-1.0,23.825,2 
COMPS,ioos:station:USF.COMPS:C10:1,2014-11-10T22:05:00Z,27.1690,-82.9260,-1.0,23.958,2 
COMPS,ioos:station:USF.COMPS:C10:1,2014-11-10T22:35:00Z,27.1690,-82.9260,-1.0,24.1,2 
COMPS,ioos:station:USF.COMPS:C10:1,2014-11-11T00:05:00Z,27.1690,-82.9260,-1.0,24.185,2 
COMPS,ioos:station:USF.COMPS:C10:1,2014-11-11T00:35:00Z,27.1690,-82.9260,-1.0,24.224,2 
COMPS,ioos:station:USF.COMPS:C10:1,2014-11-11T01:05:00Z,27.1690,-82.9260,-1.0,24.226,2 
COMPS,ioos:station:USF.COMPS:C10:1,2014-11-11T01:35:00Z,27.1690,-82.9260,-1.0,24.251,2 
COMPS,ioos:station:USF.COMPS:C10:1,2014-11-11T03:05:00Z,27.1690,-82.9260,-1.0,24.307,2 
COMPS,ioos:station:USF.COMPS:C10:1,2014-11-11T03:35:00Z,27.1690,-82.9260,-1.0,24.311,2 
COMPS,ioos:station:USF.COMPS:C10:1,2014-11-11T04:05:00Z,27.1690,-82.9260,-1.0,24.345,2 
COMPS,ioos:station:USF.COMPS:C10:1,2014-11-11T04:35:00Z,27.1690,-82.9260,-1.0,24.365,2 
COMPS,ioos:station:USF.COMPS:C10:1,2014-11-11T05:05:00Z,27.1690,-82.9260,-1.0,24.377,2 
COMPS,ioos:station:USF.COMPS:C10:1,2014-11-11T05:35:00Z,27.1690,-82.9260,-1.0,24.37,2 
COMPS,ioos:station:USF.COMPS:C10:1,2014-11-11T06:05:00Z,27.1690,-82.9260,-1.0,24.391,2 
COMPS,ioos:station:USF.COMPS:C10:1,2014-11-11T06:35:00Z,27.1690,-82.9260,-1.0,24.4,2 
COMPS,ioos:station:USF.COMPS:C10:1,2014-11-11T08:05:00Z,27.1690,-82.9260,-1.0,24.409,2 
COMPS,ioos:station:USF.COMPS:C10:1,2014-11-11T08:35:00Z,27.1690,-82.9260,-1.0,24.404,2 
COMPS,ioos:station:USF.COMPS:C10:1,2014-11-11T10:05:00Z,27.1690,-82.9260,-1.0,24.402,2 
COMPS,ioos:station:USF.COMPS:C10:1,2014-11-11T10:35:00Z,27.1690,-82.9260,-1.0,24.396,2 
COMPS,ioos:station:USF.COMPS:C10:1,2014-11-11T11:05:00Z,27.1690,-82.9260,-1.0,24.386,2 
COMPS,ioos:station:USF.COMPS:C10:1,2014-11-11T11:35:00Z,27.1690,-82.9260,-1.0,24.362,2 
COMPS,ioos:station:USF.COMPS:C10:1,2014-11-11T12:05:00Z,27.1690,-82.9260,-1.0,24.369,2 
COMPS,ioos:station:USF.COMPS:C10:1,2014-11-11T12:35:00Z,27.1690,-82.9260,-1.0,24.368,2 
COMPS,ioos:station:USF.COMPS:C10:1,2014-11-11T13:05:00Z,27.1690,-82.9260,-1.0,24.353,2 
COMPS,ioos:station:USF.COMPS:C10:1,2014-11-11T13:35:00Z,27.1690,-82.9260,-1.0,24.341,2 